Flag for Chile Weather past 2 weeks in Valdivia, Chile

Now
50 °F

Passing clouds.


Feels Like: 48 °F
Forecast: N/A
Wind: 6 mph from Northwest

Location: Puerto Montt Airport

Current Time: May 30, 2015 at 8:21:38 PM

Latest Report: May 30, 2015 at 8:00 PM


Visibility: N/A

Pressure: 29.92 "Hg

Humidity: 88%

Dew point: 46 °F

Location of ValdiviaLocation

Historic Weather in Valdivia — Graph

°F

Valdivia temperature yesterday

Maximum temperature yesterday: 52 °F (at 4:00 PM)
Minimum temperature yesterday: 46 °F (at 6:00 AM)
Average temperature yesterday: 49 °F

Past Weeks' High & Low Weather Summary

 TemperatureHumidityPressure
High63 °F (May 16, 6:00 AM)100% (May 16, 4:00 PM)30.30 "Hg (May 16, 4:00 PM)
Low32 °F (May 26, 2:00 AM)55% (May 28, 5:00 AM)29.56 "Hg (May 20, 4:00 AM)
Average50 °F88%29.97 "Hg
* Reported May 15 7:00 PM — May 30 7:00 PM, Valdivia, Weather by CustomWeather, © 2015

Note: Actual official high and low records may vary slightly from our data, if they occured in-between our weather recording intervals... More about our weather records

Advertising

Valdivia weather history for previous 24 hours

 ConditionsComfort  
Time TempWeatherWind HumidityBarometerVisibility
7:00 PM
Sat, May 30
52 °FSprinkles. Passing clouds.9 mph82%29.92 "Hg5 mi
6:00 PM55 °FPassing clouds.7 mph72%29.92 "HgN/A
5:00 PM57 °FScattered clouds.8 mph67%29.89 "HgN/A
4:00 PM57 °FPartly sunny.12 mph67%29.89 "HgN/A
3:00 PM57 °FPartly sunny.9 mph77%29.86 "HgN/A
2:00 PM54 °FPartly sunny.12 mph94%29.89 "HgN/A
1:00 PM52 °FBroken clouds.15 mph94%29.86 "HgN/A
12:00 PM52 °FSprinkles. Broken clouds.13 mph94%29.86 "Hg4 mi
11:00 AM52 °FPartly sunny.14 mph94%29.89 "HgN/A
10:00 AM50 °FPartly sunny.14 mph94%29.89 "HgN/A
9:00 AM50 °FMostly cloudy.14 mph94%29.89 "HgN/A
8:00 AM50 °FMostly cloudy.12 mph94%29.89 "HgN/A
7:00 AM50 °FLight rain. Mostly cloudy.10 mph94%29.89 "Hg5 mi
6:00 AM50 °FMostly cloudy.9 mph94%29.92 "Hg6 mi
5:00 AM50 °FMostly cloudy.10 mph94%29.92 "HgN/A
4:00 AM50 °FMostly cloudy.7 mph94%29.95 "HgN/A
3:00 AM50 °FSprinkles. Mostly cloudy.8 mph94%29.95 "Hg4 mi
2:00 AM50 °FSprinkles. Overcast.8 mph94%29.98 "Hg5 mi
1:00 AM50 °FPassing clouds.7 mph94%29.98 "HgN/A
12:00 AM50 °FSprinkles. Passing clouds.9 mph94%29.98 "Hg5 mi
11:00 PM
Fri, May 29
50 °FPartly cloudy.8 mph94%30.01 "HgN/A
10:00 PM50 °FMostly cloudy.7 mph94%30.01 "HgN/A
9:00 PM50 °FMostly cloudy.8 mph94%30.01 "HgN/A
8:00 PM50 °FPassing clouds.7 mph94%30.01 "HgN/A
Weather by CustomWeather, © 2015

See weather overviewHow to use our weather pages